Date,TemperatureHighF,TemperatureAvgF,TemperatureLowF,DewpointHighF,DewpointAvgF,DewpointLowF,HumidityHigh,HumidityAvg,HumidityLow,PressureMaxIn,PressureMinIn,WindSpeedMaxMPH,WindSpeedAvgMPH,GustSpeedMaxMPH,PrecipitationSumIn
2013-2-1,18,14,11,8,5,3,74,67,58,30.42,29.94,24,6,24,0.00
2013-2-2,24,18,10,18,11,2,86,76,66,30.40,30.06,14,2,14,0.08
2013-2-3,22,19,15,18,13,8,91,76,62,30.13,29.96,18,2,20,0.00
2013-2-4,25,20,15,19,15,8,83,78,75,30.15,29.95,10,1,10,0.06
2013-2-5,29,26,23,22,20,17,85,78,63,30.03,29.93,13,1,15,0.01
2013-2-6,31,26,17,24,16,11,85,68,45,30.40,30.02,11,2,11,0.00
2013-2-7,46,32,18,28,21,11,78,64,48,30.37,29.94,12,1,12,0.00
2013-2-8,39,32,25,34,26,19,86,79,70,30.32,29.81,20,5,21,0.18
2013-2-9,33,26,22,21,18,16,83,71,50,30.50,30.31,16,2,16,0.00
2013-2-10,47,36,22,32,20,15,80,55,36,30.41,29.90,18,2,18,0.00
2013-2-11,50,42,33,43,33,21,87,70,55,29.99,29.73,32,8,32,0.01
2013-2-12,38,32,26,25,22,20,82,68,57,30.15,29.99,21,3,21,0.00
2013-2-13,34,28,22,25,22,18,85,79,66,30.00,29.81,12,1,12,0.00
2013-2-14,38,32,25,33,27,20,91,82,69,29.98,29.89,22,4,24,0.00
2013-2-15,37,31,24,27,22,17,84,70,57,30.17,29.98,16,2,16,0.02
2013-2-16,28,24,18,20,14,6,81,68,43,30.15,30.04,13,1,13,0.02
2013-2-17,22,17,10,13,8,5,82,69,51,30.35,30.06,17,2,21,0.00
2013-2-18,47,28,8,30,16,3,81,61,44,30.36,29.84,24,4,24,0.00
2013-2-19,48,31,17,36,24,9,86,75,49,30.05,29.67,36,8,36,0.18
2013-2-20,21,17,15,15,10,7,83,73,59,30.32,30.05,16,7,27,0.00
2013-2-21,24,20,18,14,12,10,81,72,62,30.45,30.30,10,2,10,0.00
2013-2-22,38,30,20,35,24,12,87,78,68,30.39,30.02,14,2,14,0.03
2013-2-23,37,34,29,30,26,21,79,73,61,30.06,29.94,13,1,13,0.00
2013-2-24,32,29,26,23,21,16,75,70,62,30.22,29.94,13,2,13,0.00
2013-2-25,43,32,22,26,22,17,85,66,45,30.30,30.11,9,1,9,0.00
2013-2-26,38,34,30,34,26,20,87,75,61,30.15,29.60,23,2,23,0.86
2013-2-27,41,36,32,36,32,29,89,86,77,29.71,29.55,12,3,18,0.25
2013-2-28,34,32,30,31,28,25,90,83,78,29.94,29.64,15,3,16,0.01